| time (UTC) | temp F | wind direction | speed MPH | gust MPH | rain 1hr in | rain 24hr in | rain mn in | humidity % | barometer mb |
| 20260510050004 | 58 | 360 | 0.0 | 1.0 | 0.00 | 0.00 | 0.00 | 28 | 1027.4 |
| 20260510045403 | 59 | 360 | 0.0 | 2.0 | 0.00 | 0.00 | 0.00 | 28 | 1027.4 |
| 20260510044503 | 59 | 360 | 0.0 | 2.0 | 0.00 | 0.00 | 0.00 | 29 | 1027.4 |
| 20260510043603 | 59 | 360 | 0.0 | 4.0 | 0.00 | 0.00 | 0.00 | 27 | 1027.4 |
| 20260510042703 | 60 | 360 | 1.0 | 4.0 | 0.00 | 0.00 | 0.00 | 27 | 1027.4 |
| 20260510041804 | 60 | 360 | 2.0 | 3.0 | 0.00 | 0.00 | 0.00 | 28 | 1027.4 |
| 20260510040903 | 61 | 360 | 1.0 | 3.0 | 0.00 | 0.00 | 0.00 | 28 | 1027.4 |
| 20260510040004 | 62 | 360 | 0.0 | 3.0 | 0.00 | 0.00 | 0.00 | 27 | 1027.4 |
| 20260510035424 | 62 | 0 | 0.0 | 0.0 | 0.00 | 0.00 | 0.00 | 26 | 1027.4 |
| 20260510034503 | 63 | 360 | 0.0 | 2.0 | 0.00 | 0.00 | 0.00 | 25 | 1027.4 |
| 20260510033603 | 64 | 0 | 0.0 | 0.0 | 0.00 | 0.00 | 0.00 | 24 | 1027.4 |
| 20260510032703 | 64 | 360 | 0.0 | 1.0 | 0.00 | 0.00 | 0.00 | 23 | 1027.4 |
| 20260510031803 | 65 | 360 | 0.0 | 2.0 | 0.00 | 0.00 | 0.00 | 23 | 1027.4 |
| 20260510030903 | 65 | 360 | 0.0 | 2.0 | 0.00 | 0.00 | 0.00 | 23 | 1027.4 |
| 20260510030003 | 66 | 360 | 1.0 | 4.0 | 0.00 | 0.00 | 0.00 | 22 | 1027.4 |
| 20260510025424 | 67 | 360 | 0.0 | 4.0 | 0.00 | 0.00 | 0.00 | 21 | 1027.4 |
| 20260510024503 | 68 | 0 | 0.0 | 0.0 | 0.00 | 0.00 | 0.00 | 19 | 1027.4 |
| 20260510023603 | 69 | 0 | 0.0 | 0.0 | 0.00 | 0.00 | 0.00 | 18 | 1027.4 |
| 20260510022703 | 70 | 0 | 0.0 | 0.0 | 0.00 | 0.00 | 0.00 | 16 | 1027.4 |
| 20260510021824 | 70 | 0 | 0.0 | 0.0 | 0.00 | 0.00 | 0.00 | 16 | 1027.4 |
| 20260510020924 | 70 | 8 | 1.0 | 5.0 | 0.00 | 0.00 | 0.00 | 15 | 1027.4 |
| 20260510020003 | 71 | 38 | 2.0 | 6.0 | 0.00 | 0.00 | 0.00 | 15 | 1027.4 |
| 20260510015403 | 71 | 43 | 2.0 | 6.0 | 0.00 | 0.00 | 0.00 | 15 | 1027.4 |
| 20260510014503 | 71 | 22 | 2.0 | 8.0 | 0.00 | 0.00 | 0.00 | 14 | 1027.4 |
| 20260510013603 | 72 | 34 | 3.0 | 6.0 | 0.00 | 0.00 | 0.00 | 14 | 1027.4 |
| 20260510012703 | 72 | 23 | 2.0 | 8.0 | 0.00 | 0.00 | 0.00 | 15 | 1027.4 |
| 20260510011803 | 72 | 41 | 3.0 | 11.0 | 0.00 | 0.00 | 0.00 | 14 | 1027.4 |
| 20260510010924 | 72 | 38 | 3.0 | 9.0 | 0.00 | 0.00 | 0.00 | 13 | 1027.4 |
| 20260510010003 | 73 | 36 | 5.0 | 11.0 | 0.00 | 0.00 | 0.00 | 13 | 1027.4 |
| 20260510005403 | 73 | 44 | 5.0 | 11.0 | 0.00 | 0.00 | 0.00 | 13 | 1027.4 |
| 20260510004503 | 73 | 17 | 4.0 | 10.0 | 0.00 | 0.00 | 0.00 | 14 | 1027.4 |
| 20260510003624 | 74 | 15 | 3.0 | 10.0 | 0.00 | 0.00 | 0.00 | 14 | 1027.4 |
| 20260510002703 | 74 | 12 | 4.0 | 11.0 | 0.00 | 0.00 | 0.00 | 14 | 1027.4 |
| 20260510001824 | 74 | 15 | 3.0 | 9.0 | 0.00 | 0.00 | 0.00 | 13 | 1027.4 |
| 20260510000903 | 74 | 338 | 4.0 | 9.0 | 0.00 | 0.00 | 0.00 | 14 | 1027.4 |
| 20260510000003 | 74 | 341 | 4.0 | 14.0 | 0.00 | 0.00 | 0.00 | 14 | 1027.4 |
| 20260509235403 | 74 | 343 | 5.0 | 13.0 | 0.00 | 0.00 | 0.00 | 13 | 1027.4 |
| 20260509234503 | 74 | 334 | 5.0 | 11.0 | 0.00 | 0.00 | 0.00 | 14 | 1027.4 |
| 20260509233603 | 73 | 355 | 6.0 | 15.0 | 0.00 | 0.00 | 0.00 | 13 | 1027.4 |
| 20260509232703 | 74 | 334 | 5.0 | 15.0 | 0.00 | 0.00 | 0.00 | 14 | 1027.4 |
| 20260509231824 | 73 | 342 | 7.0 | 13.0 | 0.00 | 0.00 | 0.00 | 14 | 1027.4 |
| 20260509230903 | 73 | 346 | 7.0 | 15.0 | 0.00 | 0.00 | 0.00 | 13 | 1027.4 |
| 20260509230003 | 73 | 339 | 7.0 | 16.0 | 0.00 | 0.00 | 0.00 | 14 | 1027.4 |
| 20260509225403 | 73 | 336 | 8.0 | 15.0 | 0.00 | 0.00 | 0.00 | 13 | 1027.4 |
| 20260509224503 | 74 | 326 | 8.0 | 15.0 | 0.00 | 0.00 | 0.00 | 13 | 1027.4 |
| 20260509223603 | 73 | 333 | 8.0 | 17.0 | 0.00 | 0.00 | 0.00 | 16 | 1027.4 |
| 20260509222703 | 73 | 355 | 8.0 | 17.0 | 0.00 | 0.00 | 0.00 | 15 | 1027.4 |
| 20260509221803 | 73 | 335 | 7.0 | 16.0 | 0.00 | 0.00 | 0.00 | 15 | 1027.4 |
| 20260509220903 | 73 | 340 | 8.0 | 18.0 | 0.00 | 0.00 | 0.00 | 15 | 1027.4 |
| 20260509220004 | 73 | 1 | 6.0 | 14.0 | 0.00 | 0.00 | 0.00 | 14 | 1027.4 |
| 20260509215403 | 73 | 345 | 7.0 | 13.0 | 0.00 | 0.00 | 0.00 | 14 | 1027.4 |
| 20260509214504 | 73 | 329 | 8.0 | 18.0 | 0.00 | 0.00 | 0.00 | 14 | 1027.4 |
| 20260509213603 | 73 | 344 | 7.0 | 16.0 | 0.00 | 0.00 | 0.00 | 15 | 1027.4 |
| 20260509212703 | 73 | 333 | 6.0 | 15.0 | 0.00 | 0.00 | 0.00 | 14 | 1027.4 |
| 20260509211803 | 73 | 353 | 6.0 | 13.0 | 0.00 | 0.00 | 0.00 | 18 | 1027.4 |
| 20260509210904 | 72 | 360 | 5.0 | 12.0 | 0.00 | 0.00 | 0.00 | 18 | 1027.4 |
| 20260509210003 | 72 | 340 | 5.0 | 11.0 | 0.00 | 0.00 | 0.00 | 18 | 1027.4 |
| 20260509205403 | 72 | 355 | 5.0 | 13.0 | 0.00 | 0.00 | 0.00 | 18 | 1027.4 |
| 20260509204503 | 72 | 350 | 5.0 | 13.0 | 0.00 | 0.00 | 0.00 | 18 | 1027.4 |
| 20260509203603 | 72 | 355 | 5.0 | 12.0 | 0.00 | 0.00 | 0.00 | 17 | 1027.4 |
| 20260509202703 | 72 | 345 | 4.0 | 12.0 | 0.00 | 0.00 | 0.00 | 17 | 1027.4 |
| 20260509201803 | 71 | 358 | 7.0 | 12.0 | 0.00 | 0.00 | 0.00 | 20 | 1027.4 |
| 20260509200903 | 72 | 7 | 6.0 | 17.0 | 0.00 | 0.00 | 0.00 | 22 | 1027.4 |
| 20260509200004 | 72 | 346 | 5.0 | 14.0 | 0.00 | 0.00 | 0.00 | 19 | 1027.4 |
| 20260509195403 | 72 | 356 | 4.0 | 11.0 | 0.00 | 0.00 | 0.00 | 22 | 1027.4 |
| 20260509194524 | 72 | 14 | 4.0 | 12.0 | 0.00 | 0.00 | 0.00 | 22 | 1027.4 |
| 20260509193604 | 72 | 2 | 4.0 | 13.0 | 0.00 | 0.00 | 0.00 | 22 | 1027.4 |
| 20260509192725 | 72 | 7 | 4.0 | 10.0 | 0.00 | 0.00 | 0.00 | 19 | 1027.4 |
| 20260509191803 | 72 | 344 | 4.0 | 11.0 | 0.00 | 0.00 | 0.00 | 20 | 1027.4 |
| 20260509190904 | 72 | 344 | 4.0 | 11.0 | 0.00 | 0.00 | 0.00 | 22 | 1027.4 |
| 20260509190024 | 72 | 6 | 4.0 | 10.0 | 0.00 | 0.00 | 0.00 | 21 | 1027.4 |
| 20260509185403 | 71 | 2 | 5.0 | 14.0 | 0.00 | 0.00 | 0.00 | 21 | 1027.4 |
| 20260509184503 | 72 | 353 | 5.0 | 14.0 | 0.00 | 0.00 | 0.00 | 20 | 1027.4 |
| 20260509183603 | 71 | 4 | 4.0 | 13.0 | 0.00 | 0.00 | 0.00 | 21 | 1027.4 |
| 20260509182724 | 70 | 7 | 5.0 | 13.0 | 0.00 | 0.00 | 0.00 | 21 | 1027.4 |
| 20260509181803 | 70 | 3 | 6.0 | 16.0 | 0.00 | 0.00 | 0.00 | 20 | 1027.4 |
| 20260509180903 | 69 | 351 | 6.0 | 14.0 | 0.00 | 0.00 | 0.00 | 21 | 1027.4 |
| 20260509180003 | 69 | 5 | 6.0 | 20.0 | 0.00 | 0.00 | 0.00 | 23 | 1027.4 |
| 20260509175403 | 70 | 359 | 5.0 | 20.0 | 0.00 | 0.00 | 0.00 | 21 | 1027.4 |
| 20260509174503 | 69 | 353 | 6.0 | 13.0 | 0.00 | 0.00 | 0.00 | 22 | 1027.4 |
| 20260509173603 | 69 | 337 | 5.0 | 12.0 | 0.00 | 0.00 | 0.00 | 23 | 1027.4 |
| 20260509172703 | 69 | 347 | 5.0 | 14.0 | 0.00 | 0.00 | 0.00 | 26 | 1027.4 |
| 20260509171803 | 69 | 2 | 5.0 | 15.0 | 0.00 | 0.00 | 0.00 | 23 | 1027.4 |
| 20260509170903 | 69 | 22 | 6.0 | 14.0 | 0.00 | 0.00 | 0.00 | 23 | 1027.4 |
| 20260509170003 | 69 | 350 | 6.0 | 12.0 | 0.00 | 0.00 | 0.00 | 22 | 1027.4 |
| 20260509165403 | 70 | 324 | 6.0 | 15.0 | 0.00 | 0.00 | 0.00 | 23 | 1027.4 |
| 20260509164524 | 70 | 314 | 5.0 | 15.0 | 0.00 | 0.00 | 0.00 | 23 | 1027.4 |
| 20260509163624 | 69 | 338 | 6.0 | 12.0 | 0.00 | 0.00 | 0.00 | 24 | 1027.4 |
| 20260509162703 | 68 | 327 | 6.0 | 12.0 | 0.00 | 0.00 | 0.00 | 23 | 1027.4 |
| 20260509161803 | 68 | 323 | 7.0 | 14.0 | 0.00 | 0.00 | 0.00 | 23 | 1027.4 |
| 20260509160903 | 68 | 325 | 7.0 | 13.0 | 0.00 | 0.00 | 0.00 | 24 | 1027.4 |
| 20260509160003 | 68 | 358 | 6.0 | 13.0 | 0.00 | 0.00 | 0.00 | 25 | 1027.4 |
| 20260509155403 | 68 | 332 | 5.0 | 12.0 | 0.00 | 0.00 | 0.00 | 25 | 1027.4 |
| 20260509154503 | 67 | 329 | 5.0 | 12.0 | 0.00 | 0.00 | 0.00 | 26 | 1027.4 |
| 20260509153603 | 67 | 357 | 4.0 | 12.0 | 0.00 | 0.00 | 0.00 | 26 | 1027.4 |
| 20260509152703 | 67 | 339 | 4.0 | 12.0 | 0.00 | 0.00 | 0.00 | 27 | 1027.4 |
| 20260509151824 | 67 | 351 | 4.0 | 11.0 | 0.00 | 0.00 | 0.00 | 26 | 1027.4 |
| 20260509150903 | 66 | 356 | 4.0 | 10.0 | 0.00 | 0.00 | 0.00 | 26 | 1027.4 |
| 20260509150003 | 66 | 333 | 3.0 | 10.0 | 0.00 | 0.00 | 0.00 | 27 | 1027.4 |
| 20260509145403 | 66 | 337 | 4.0 | 10.0 | 0.00 | 0.00 | 0.00 | 26 | 1027.4 |
| 20260509144503 | 66 | 358 | 4.0 | 12.0 | 0.00 | 0.00 | 0.00 | 26 | 1027.4 |
| 20260509143603 | 65 | 355 | 4.0 | 9.0 | 0.00 | 0.00 | 0.00 | 27 | 1027.4 |
| 20260509142724 | 66 | 346 | 3.0 | 9.0 | 0.00 | 0.00 | 0.00 | 27 | 1027.4 |
| 20260509141824 | 65 | 356 | 4.0 | 10.0 | 0.00 | 0.00 | 0.00 | 28 | 1027.4 |
| 20260509140903 | 65 | 355 | 2.0 | 9.0 | 0.00 | 0.00 | 0.00 | 29 | 1027.4 |
| 20260509140004 | 64 | 296 | 1.0 | 5.0 | 0.00 | 0.00 | 0.00 | 31 | 1027.4 |
| 20260509135403 | 64 | 282 | 1.0 | 4.0 | 0.00 | 0.00 | 0.00 | 31 | 1027.4 |
| 20260509134503 | 62 | 296 | 1.0 | 4.0 | 0.00 | 0.00 | 0.00 | 33 | 1027.4 |
| 20260509133603 | 61 | 303 | 1.0 | 5.0 | 0.00 | 0.00 | 0.00 | 33 | 1027.4 |
| 20260509132724 | 60 | 293 | 1.0 | 5.0 | 0.00 | 0.00 | 0.00 | 35 | 1027.4 |
| 20260509131824 | 59 | 290 | 2.0 | 5.0 | 0.00 | 0.00 | 0.00 | 36 | 1027.4 |
| 20260509130924 | 58 | 288 | 2.0 | 8.0 | 0.00 | 0.00 | 0.00 | 36 | 1027.4 |
| 20260509130004 | 58 | 324 | 2.0 | 6.0 | 0.00 | 0.00 | 0.00 | 36 | 1027.4 |
| 20260509125403 | 57 | 338 | 2.0 | 6.0 | 0.00 | 0.00 | 0.00 | 36 | 1027.4 |
| 20260509124524 | 57 | 319 | 2.0 | 5.0 | 0.00 | 0.00 | 0.00 | 35 | 1027.4 |
| 20260509123603 | 57 | 293 | 2.0 | 7.0 | 0.00 | 0.00 | 0.00 | 34 | 1027.4 |
| 20260509122724 | 58 | 294 | 2.0 | 7.0 | 0.00 | 0.00 | 0.00 | 33 | 1027.4 |
| 20260509121803 | 58 | 306 | 3.0 | 8.0 | 0.00 | 0.00 | 0.00 | 32 | 1027.4 |
| 20260509120903 | 58 | 307 | 4.0 | 10.0 | 0.00 | 0.00 | 0.00 | 31 | 1027.4 |
| 20260509120003 | 58 | 303 | 5.0 | 9.0 | 0.00 | 0.00 | 0.00 | 31 | 1027.4 |
| 20260509115403 | 58 | 303 | 4.0 | 10.0 | 0.00 | 0.00 | 0.00 | 31 | 1027.4 |
| 20260509114503 | 58 | 302 | 2.0 | 8.0 | 0.00 | 0.00 | 0.00 | 31 | 1027.4 |
| 20260509113603 | 59 | 303 | 2.0 | 5.0 | 0.00 | 0.00 | 0.00 | 31 | 1027.4 |
| 20260509112724 | 59 | 299 | 3.0 | 7.0 | 0.00 | 0.00 | 0.00 | 30 | 1027.4 |
| 20260509111803 | 59 | 303 | 4.0 | 8.0 | 0.00 | 0.00 | 0.00 | 30 | 1027.4 |
| 20260509110903 | 60 | 301 | 4.0 | 10.0 | 0.00 | 0.00 | 0.00 | 30 | 1027.4 |
| 20260509110003 | 60 | 299 | 3.0 | 9.0 | 0.00 | 0.00 | 0.00 | 30 | 1027.4 |
| 20260509105403 | 60 | 299 | 4.0 | 10.0 | 0.00 | 0.00 | 0.00 | 30 | 1027.4 |
| 20260509104503 | 60 | 303 | 5.0 | 10.0 | 0.00 | 0.00 | 0.00 | 30 | 1027.4 |
| 20260509103603 | 60 | 306 | 5.0 | 12.0 | 0.00 | 0.00 | 0.00 | 30 | 1027.4 |
| 20260509102724 | 60 | 307 | 4.0 | 12.0 | 0.00 | 0.00 | 0.00 | 30 | 1027.4 |
| 20260509101803 | 60 | 302 | 4.0 | 11.0 | 0.00 | 0.00 | 0.00 | 30 | 1027.4 |
| 20260509100924 | 60 | 296 | 2.0 | 7.0 | 0.00 | 0.00 | 0.00 | 32 | 1027.4 |
| 20260509100004 | 61 | 291 | 1.0 | 5.0 | 0.00 | 0.00 | 0.00 | 32 | 1027.4 |
| 20260509095403 | 61 | 293 | 2.0 | 7.0 | 0.00 | 0.00 | 0.00 | 32 | 1027.4 |
| 20260509094503 | 61 | 300 | 3.0 | 11.0 | 0.00 | 0.00 | 0.00 | 32 | 1027.4 |
| 20260509093603 | 61 | 301 | 4.0 | 9.0 | 0.00 | 0.00 | 0.00 | 32 | 1027.4 |
| 20260509092703 | 60 | 303 | 3.0 | 10.0 | 0.00 | 0.00 | 0.00 | 34 | 1027.4 |
| 20260509091803 | 60 | 296 | 2.0 | 7.0 | 0.00 | 0.00 | 0.00 | 35 | 1027.4 |
| 20260509090924 | 60 | 292 | 2.0 | 8.0 | 0.00 | 0.00 | 0.00 | 37 | 1027.4 |
| 20260509090003 | 59 | 292 | 0.0 | 4.0 | 0.00 | 0.00 | 0.00 | 39 | 1027.4 |
| 20260509085403 | 60 | 292 | 0.0 | 2.0 | 0.00 | 0.00 | 0.00 | 41 | 1027.4 |
| 20260509084503 | 60 | 292 | 0.0 | 3.0 | 0.00 | 0.00 | 0.00 | 40 | 1027.4 |
| 20260509083624 | 60 | 292 | 0.0 | 2.0 | 0.00 | 0.00 | 0.00 | 44 | 1027.4 |
| 20260509082703 | 61 | 292 | 0.0 | 2.0 | 0.00 | 0.00 | 0.00 | 44 | 1027.4 |
| 20260509081803 | 61 | 0 | 0.0 | 0.0 | 0.00 | 0.00 | 0.00 | 43 | 1027.4 |
| 20260509080903 | 62 | 0 | 0.0 | 0.0 | 0.00 | 0.00 | 0.00 | 41 | 1027.4 |
| 20260509080003 | 62 | 0 | 0.0 | 0.0 | 0.00 | 0.00 | 0.00 | 40 | 1027.4 |
| 20260509075403 | 62 | 0 | 0.0 | 0.0 | 0.00 | 0.00 | 0.00 | 40 | 1027.4 |
| 20260509074503 | 62 | 352 | 1.0 | 4.0 | 0.00 | 0.00 | 0.00 | 38 | 1027.4 |
| 20260509073603 | 62 | 352 | 1.0 | 4.0 | 0.00 | 0.00 | 0.00 | 38 | 1027.4 |
| 20260509072703 | 62 | 354 | 2.0 | 6.0 | 0.00 | 0.00 | 0.00 | 40 | 1027.4 |
| 20260509071803 | 61 | 352 | 2.0 | 8.0 | 0.00 | 0.00 | 0.00 | 42 | 1027.4 |
| 20260509070903 | 60 | 351 | 1.0 | 6.0 | 0.00 | 0.00 | 0.00 | 41 | 1027.4 |
| 20260509070003 | 60 | 360 | 0.0 | 2.0 | 0.00 | 0.00 | 0.00 | 40 | 1027.4 |
| 20260509065424 | 60 | 0 | 0.0 | 0.0 | 0.00 | 0.00 | 0.00 | 39 | 1027.4 |
| 20260509064503 | 61 | 360 | 0.0 | 1.0 | 0.00 | 0.00 | 0.00 | 39 | 1027.4 |
| 20260509063603 | 62 | 360 | 0.0 | 5.0 | 0.00 | 0.00 | 0.00 | 37 | 1027.4 |
| 20260509062703 | 62 | 0 | 0.0 | 0.0 | 0.00 | 0.00 | 0.00 | 37 | 1027.4 |
| 20260509061803 | 63 | 360 | 0.0 | 2.0 | 0.00 | 0.00 | 0.00 | 35 | 1027.4 |
| 20260509060903 | 63 | 331 | 0.0 | 1.0 | 0.00 | 0.00 | 0.00 | 34 | 1027.4 |
| 20260509060004 | 63 | 354 | 1.0 | 4.0 | 0.00 | 0.00 | 0.00 | 33 | 1027.4 |
| 20260509055403 | 62 | 358 | 2.0 | 6.0 | 0.00 | 0.00 | 0.00 | 34 | 1027.4 |
| 20260509054524 | 62 | 360 | 0.0 | 3.0 | 0.00 | 0.00 | 0.00 | 34 | 1027.4 |
| 20260509053603 | 62 | 360 | 0.0 | 2.0 | 0.00 | 0.00 | 0.00 | 34 | 1027.4 |
| 20260509052703 | 62 | 360 | 0.0 | 2.0 | 0.00 | 0.00 | 0.00 | 36 | 1027.4 |
| 20260509051803 | 63 | 360 | 1.0 | 4.0 | 0.00 | 0.00 | 0.00 | 35 | 1027.4 |
| 20260509050903 | 64 | 0 | 0.0 | 0.0 | 0.00 | 0.00 | 0.00 | 34 | 1027.4 |